Time,TemperatureF,DewpointF,PressureIn,WindDirection,WindDirectionDegrees,WindSpeedMPH,WindSpeedGustMPH,Humidity,HourlyPrecipIn,Conditions,Clouds,dailyrainin,SoftwareType,DateUTC
2013-03-02 00:02:00,41.6,26.6,30.33,North,8,1.0,3.0,55,0.00,,,0.00,Wunderground v.1.15,2013-03-02 06:02:00,
2013-03-02 00:08:00,41.6,27.1,30.32,North,7,1.0,3.0,56,0.00,,,0.00,Wunderground v.1.15,2013-03-02 06:08:00,
2013-03-02 00:14:00,41.2,26.7,30.33,NNW,346,1.0,2.0,56,0.00,,,0.00,Wunderground v.1.15,2013-03-02 06:14:00,
2013-03-02 00:20:00,40.7,26.6,30.33,NNE,12,1.0,2.0,57,0.00,,,0.00,Wunderground v.1.15,2013-03-02 06:20:00,
2013-03-02 00:26:00,40.5,26.9,30.33,NNW,341,2.0,4.0,58,0.00,,,0.00,Wunderground v.1.15,2013-03-02 06:26:00,
2013-03-02 00:32:00,40.4,27.2,30.33,North,358,2.0,2.0,59,0.00,,,0.00,Wunderground v.1.15,2013-03-02 06:32:00,
2013-03-02 00:38:00,40.5,27.3,30.33,North,360,2.0,3.0,59,0.00,,,0.00,Wunderground v.1.15,2013-03-02 06:38:00,
2013-03-02 00:44:00,40.3,27.1,30.33,NNE,15,2.0,3.0,59,0.00,,,0.00,Wunderground v.1.15,2013-03-02 06:44:00,
2013-03-02 00:50:00,40.1,27.3,30.33,North,4,2.0,2.0,60,0.00,,,0.00,Wunderground v.1.15,2013-03-02 06:50:00,
2013-03-02 00:56:00,39.9,27.1,30.34,North,356,2.0,3.0,60,0.00,,,0.00,Wunderground v.1.15,2013-03-02 06:56:00,
2013-03-02 01:02:00,39.8,27.4,30.34,NNE,15,2.0,3.0,61,0.00,,,0.00,Wunderground v.1.15,2013-03-02 07:02:00,
2013-03-02 01:08:00,39.6,27.2,30.34,North,5,2.0,3.0,61,0.00,,,0.00,Wunderground v.1.15,2013-03-02 07:08:00,
2013-03-02 01:14:00,39.7,27.7,30.34,NNE,19,3.0,4.0,62,0.00,,,0.00,Wunderground v.1.15,2013-03-02 07:14:00,
2013-03-02 01:20:00,39.9,27.5,30.34,NNE,30,4.0,4.0,61,0.00,,,0.00,Wunderground v.1.15,2013-03-02 07:20:00,
2013-03-02 01:26:00,40.4,28.0,30.34,North,6,4.0,4.0,61,0.00,,,0.00,Wunderground v.1.15,2013-03-02 07:26:00,
2013-03-02 01:32:00,40.8,28.4,30.34,NNW,346,3.0,3.0,61,0.00,,,0.00,Wunderground v.1.15,2013-03-02 07:32:00,
2013-03-02 01:38:00,40.6,27.8,30.34,NNW,328,3.0,3.0,60,0.00,,,0.00,Wunderground v.1.15,2013-03-02 07:38:00,
2013-03-02 01:44:00,40.2,27.8,30.35,North,8,2.0,3.0,61,0.00,,,0.00,Wunderground v.1.15,2013-03-02 07:44:00,
2013-03-02 01:50:00,39.8,27.8,30.35,NNW,345,2.0,4.0,62,0.00,,,0.00,Wunderground v.1.15,2013-03-02 07:50:00,
2013-03-02 01:56:00,39.5,27.5,30.35,NNE,12,3.0,4.0,62,0.00,,,0.00,Wunderground v.1.15,2013-03-02 07:56:00,
2013-03-02 02:02:00,39.4,27.5,30.35,NNW,346,2.0,4.0,62,0.00,,,0.00,Wunderground v.1.15,2013-03-02 08:02:00,
2013-03-02 02:08:00,39.4,27.8,30.35,NW,319,3.0,4.0,63,0.00,,,0.00,Wunderground v.1.15,2013-03-02 08:08:00,
2013-03-02 02:14:00,39.4,27.8,30.35,NNW,334,3.0,4.0,63,0.00,,,0.00,Wunderground v.1.15,2013-03-02 08:14:00,
2013-03-02 02:20:00,39.4,27.8,30.35,North,358,3.0,3.0,63,0.00,,,0.00,Wunderground v.1.15,2013-03-02 08:20:00,
2013-03-02 02:26:00,39.3,27.7,30.35,North,350,3.0,3.0,63,0.00,,,0.00,Wunderground v.1.15,2013-03-02 08:26:00,
2013-03-02 02:32:00,39.0,27.8,30.35,North,6,3.0,3.0,64,0.00,,,0.00,Wunderground v.1.15,2013-03-02 08:32:00,
2013-03-02 02:38:00,38.9,27.8,30.35,North,358,3.0,3.0,64,0.00,,,0.00,Wunderground v.1.15,2013-03-02 08:38:00,
2013-03-02 02:44:00,39.0,27.8,30.35,NNE,15,3.0,5.0,64,0.00,,,0.00,Wunderground v.1.15,2013-03-02 08:44:00,
2013-03-02 02:50:00,39.1,27.9,30.35,North,9,4.0,4.0,64,0.00,,,0.00,Wunderground v.1.15,2013-03-02 08:50:00,
2013-03-02 02:56:00,38.8,27.7,30.35,North,5,3.0,4.0,64,0.00,,,0.00,Wunderground v.1.15,2013-03-02 08:56:00,
2013-03-02 03:02:00,38.5,27.4,30.34,North,8,3.0,3.0,64,0.00,,,0.00,Wunderground v.1.15,2013-03-02 09:02:00,
2013-03-02 03:08:00,38.3,27.2,30.34,NNW,342,3.0,3.0,64,0.00,,,0.00,Wunderground v.1.15,2013-03-02 09:08:00,
2013-03-02 03:14:00,38.3,27.2,30.34,NNW,343,3.0,4.0,64,0.00,,,0.00,Wunderground v.1.15,2013-03-02 09:14:00,
2013-03-02 03:20:00,38.3,26.8,30.34,North,8,3.0,4.0,63,0.00,,,0.00,Wunderground v.1.15,2013-03-02 09:20:00,
2013-03-02 03:26:00,38.8,26.1,30.34,NNW,337,4.0,5.0,60,0.00,,,0.00,Wunderground v.1.15,2013-03-02 09:26:00,
2013-03-02 03:32:00,39.8,26.2,30.34,NNW,328,5.0,9.0,58,0.00,,,0.00,Wunderground v.1.15,2013-03-02 09:32:00,
2013-03-02 03:38:00,40.0,25.6,30.34,NNW,338,4.0,9.0,56,0.00,,,0.00,Wunderground v.1.15,2013-03-02 09:38:00,
2013-03-02 03:44:00,40.5,25.6,30.34,NNW,346,4.0,8.0,55,0.00,,,0.00,Wunderground v.1.15,2013-03-02 09:44:00,
2013-03-02 03:50:00,40.8,25.0,30.34,NW,315,5.0,5.0,53,0.00,,,0.00,Wunderground v.1.15,2013-03-02 09:50:00,
2013-03-02 03:56:00,40.6,25.2,30.34,NNW,343,5.0,5.0,54,0.00,,,0.00,Wunderground v.1.15,2013-03-02 09:56:00,
2013-03-02 04:02:00,40.6,25.2,30.34,North,350,5.0,5.0,54,0.00,,,0.00,Wunderground v.1.15,2013-03-02 10:02:00,
2013-03-02 04:08:00,40.8,25.0,30.34,NNW,346,5.0,5.0,53,0.00,,,0.00,Wunderground v.1.15,2013-03-02 10:08:00,
2013-03-02 04:14:00,40.9,25.1,30.34,NNW,335,5.0,8.0,53,0.00,,,0.00,Wunderground v.1.15,2013-03-02 10:14:00,
2013-03-02 04:20:00,40.7,24.9,30.34,NW,315,6.0,6.0,53,0.00,,,0.00,Wunderground v.1.15,2013-03-02 10:20:00,
2013-03-02 04:26:00,40.3,25.0,30.34,North,352,6.0,6.0,54,0.00,,,0.00,Wunderground v.1.15,2013-03-02 10:26:00,
2013-03-02 04:32:00,39.9,25.0,30.34,NNW,345,6.0,6.0,55,0.00,,,0.00,Wunderground v.1.15,2013-03-02 10:32:00,
2013-03-02 04:38:00,39.7,25.3,30.34,North,9,6.0,8.0,56,0.00,,,0.00,Wunderground v.1.15,2013-03-02 10:38:00,
2013-03-02 04:44:00,39.5,25.5,30.34,NNE,19,6.0,9.0,57,0.00,,,0.00,Wunderground v.1.15,2013-03-02 10:44:00,
2013-03-02 04:50:00,39.2,25.6,30.35,NNW,335,6.0,6.0,58,0.00,,,0.00,Wunderground v.1.15,2013-03-02 10:50:00,
2013-03-02 04:56:00,39.1,25.6,30.34,NNE,15,6.0,11.0,58,0.00,,,0.00,Wunderground v.1.15,2013-03-02 10:56:00,
2013-03-02 05:02:00,39.0,25.9,30.35,NNE,22,7.0,7.0,59,0.00,,,0.00,Wunderground v.1.15,2013-03-02 11:02:00,
2013-03-02 05:08:00,38.9,25.8,30.34,NNE,33,6.0,9.0,59,0.00,,,0.00,Wunderground v.1.15,2013-03-02 11:08:00,
2013-03-02 05:14:00,38.5,25.8,30.35,NW,325,7.0,9.0,60,0.00,,,0.00,Wunderground v.1.15,2013-03-02 11:14:00,
2013-03-02 05:20:00,38.1,25.8,30.35,NNE,13,6.0,7.0,61,0.00,,,0.00,Wunderground v.1.15,2013-03-02 11:20:00,
2013-03-02 05:26:00,37.7,25.8,30.35,North,352,6.0,8.0,62,0.00,,,0.00,Wunderground v.1.15,2013-03-02 11:26:00,
2013-03-02 05:32:00,37.7,26.2,30.36,NNE,16,7.0,8.0,63,0.00,,,0.00,Wunderground v.1.15,2013-03-02 11:32:00,
2013-03-02 05:38:00,37.5,26.0,30.36,NNE,22,7.0,9.0,63,0.00,,,0.00,Wunderground v.1.15,2013-03-02 11:38:00,
2013-03-02 05:44:00,37.4,26.3,30.36,NNW,330,6.0,7.0,64,0.00,,,0.00,Wunderground v.1.15,2013-03-02 11:44:00,
2013-03-02 05:50:00,37.4,26.3,30.36,North,11,6.0,6.0,64,0.00,,,0.00,Wunderground v.1.15,2013-03-02 11:50:00,
2013-03-02 05:56:00,37.4,26.7,30.37,North,350,6.0,9.0,65,0.00,,,0.00,Wunderground v.1.15,2013-03-02 11:56:00,
2013-03-02 06:02:00,37.6,26.9,30.37,North,356,6.0,8.0,65,0.00,,,0.00,Wunderground v.1.15,2013-03-02 12:02:00,
2013-03-02 06:08:00,37.6,26.9,30.37,NNW,348,7.0,9.0,65,0.00,,,0.00,Wunderground v.1.15,2013-03-02 12:08:00,
2013-03-02 06:14:00,37.6,26.9,30.37,NNE,13,7.0,8.0,65,0.00,,,0.00,Wunderground v.1.15,2013-03-02 12:14:00,
2013-03-02 06:20:00,37.5,26.8,30.37,NNW,340,7.0,7.0,65,0.00,,,0.00,Wunderground v.1.15,2013-03-02 12:20:00,
2013-03-02 06:26:00,37.4,27.1,30.37,NNW,346,7.0,7.0,66,0.00,,,0.00,Wunderground v.1.15,2013-03-02 12:26:00,
2013-03-02 06:32:00,37.4,27.1,30.37,NNW,337,7.0,7.0,66,0.00,,,0.00,Wunderground v.1.15,2013-03-02 12:32:00,
2013-03-02 06:38:00,37.3,27.0,30.38,NNW,346,6.0,7.0,66,0.00,,,0.00,Wunderground v.1.15,2013-03-02 12:38:00,
2013-03-02 06:44:00,37.1,26.8,30.38,NNE,26,7.0,11.0,66,0.00,,,0.00,Wunderground v.1.15,2013-03-02 12:44:00,
2013-03-02 06:50:00,36.9,27.0,30.38,North,356,7.0,8.0,67,0.00,,,0.00,Wunderground v.1.15,2013-03-02 12:50:00,
2013-03-02 06:56:00,36.7,26.8,30.38,NNE,13,6.0,9.0,67,0.00,,,0.00,Wunderground v.1.15,2013-03-02 12:56:00,
2013-03-02 07:02:00,36.8,27.2,30.39,North,350,6.0,10.0,68,0.00,,,0.00,Wunderground v.1.15,2013-03-02 13:02:00,
2013-03-02 07:08:00,36.9,27.3,30.39,NNW,328,6.0,10.0,68,0.00,,,0.00,Wunderground v.1.15,2013-03-02 13:08:00,
2013-03-02 07:14:00,36.9,27.3,30.39,North,354,6.0,9.0,68,0.00,,,0.00,Wunderground v.1.15,2013-03-02 13:14:00,
2013-03-02 07:20:00,37.1,27.5,30.40,NNW,330,6.0,6.0,68,0.00,,,0.00,Wunderground v.1.15,2013-03-02 13:20:00,
2013-03-02 07:26:00,37.3,27.7,30.40,WNW,289,7.0,10.0,68,0.00,,,0.00,Wunderground v.1.15,2013-03-02 13:26:00,
2013-03-02 07:32:00,37.5,27.5,30.41,NNW,331,8.0,9.0,67,0.00,,,0.00,Wunderground v.1.15,2013-03-02 13:32:00,
2013-03-02 07:38:00,37.9,27.9,30.41,North,8,8.0,10.0,67,0.00,,,0.00,Wunderground v.1.15,2013-03-02 13:38:00,
2013-03-02 07:44:00,38.1,27.7,30.41,NNW,328,8.0,12.0,66,0.00,,,0.00,Wunderground v.1.15,2013-03-02 13:44:00,
2013-03-02 07:50:00,38.4,28.0,30.42,NNW,335,8.0,8.0,66,0.00,,,0.00,Wunderground v.1.15,2013-03-02 13:50:00,
2013-03-02 07:56:00,38.6,27.8,30.42,NNE,22,8.0,13.0,65,0.00,,,0.00,Wunderground v.1.15,2013-03-02 13:56:00,
2013-03-02 08:02:00,38.8,28.0,30.42,NNW,343,9.0,10.0,65,0.00,,,0.00,Wunderground v.1.15,2013-03-02 14:02:00,
2013-03-02 08:08:00,39.1,28.3,30.42,NNW,341,9.0,10.0,65,0.00,,,0.00,Wunderground v.1.15,2013-03-02 14:08:00,
2013-03-02 08:14:00,39.3,28.5,30.42,North,351,8.0,11.0,65,0.00,,,0.00,Wunderground v.1.15,2013-03-02 14:14:00,
2013-03-02 08:20:00,39.4,28.6,30.43,North,11,9.0,12.0,65,0.00,,,0.00,Wunderground v.1.15,2013-03-02 14:20:00,
2013-03-02 08:26:00,39.5,28.7,30.43,NNE,30,10.0,12.0,65,0.00,,,0.00,Wunderground v.1.15,2013-03-02 14:26:00,
2013-03-02 08:32:00,39.9,28.7,30.43,NNW,348,9.0,11.0,64,0.00,,,0.00,Wunderground v.1.15,2013-03-02 14:32:00,
2013-03-02 08:38:00,40.3,29.1,30.43,NNW,333,9.0,11.0,64,0.00,,,0.00,Wunderground v.1.15,2013-03-02 14:38:00,
2013-03-02 08:44:00,40.9,29.3,30.43,NNW,328,9.0,11.0,63,0.00,,,0.00,Wunderground v.1.15,2013-03-02 14:44:00,
2013-03-02 08:50:00,41.5,29.0,30.44,North,359,8.0,11.0,61,0.00,,,0.00,Wunderground v.1.15,2013-03-02 14:50:00,
2013-03-02 08:56:00,42.2,29.3,30.44,NNW,335,8.0,11.0,60,0.00,,,0.00,Wunderground v.1.15,2013-03-02 14:56:00,
2013-03-02 09:02:00,42.5,28.8,30.44,NNW,345,8.0,10.0,58,0.00,,,0.00,Wunderground v.1.15,2013-03-02 15:02:00,
2013-03-02 09:08:00,42.6,28.4,30.44,North,356,9.0,12.0,57,0.00,,,0.00,Wunderground v.1.15,2013-03-02 15:08:00,
2013-03-02 09:14:00,43.4,27.4,30.44,NNE,16,8.0,11.0,53,0.00,,,0.00,Wunderground v.1.15,2013-03-02 15:14:00,
2013-03-02 09:20:00,43.6,27.6,30.44,NNW,333,7.0,7.0,53,0.00,,,0.00,Wunderground v.1.15,2013-03-02 15:20:00,
2013-03-02 09:26:00,44.0,26.5,30.44,North,352,8.0,14.0,50,0.00,,,0.00,Wunderground v.1.15,2013-03-02 15:26:00,
2013-03-02 09:32:00,44.5,27.5,30.44,NW,309,9.0,9.0,51,0.00,,,0.00,Wunderground v.1.15,2013-03-02 15:32:00,
2013-03-02 09:38:00,44.5,27.0,30.44,NNW,330,8.0,15.0,50,0.00,,,0.00,Wunderground v.1.15,2013-03-02 15:38:00,
2013-03-02 09:44:00,44.8,26.8,30.44,NNW,336,8.0,17.0,49,0.00,,,0.00,Wunderground v.1.15,2013-03-02 15:44:00,
2013-03-02 09:50:00,45.0,27.0,30.45,NNW,345,8.0,9.0,49,0.00,,,0.00,Wunderground v.1.15,2013-03-02 15:50:00,
2013-03-02 09:56:00,45.3,27.2,30.45,North,354,8.0,9.0,49,0.00,,,0.00,Wunderground v.1.15,2013-03-02 15:56:00,
2013-03-02 10:02:00,45.6,27.0,30.45,North,351,8.0,9.0,48,0.00,,,0.00,Wunderground v.1.15,2013-03-02 16:02:00,
2013-03-02 10:08:00,45.9,26.3,30.45,NNE,23,8.0,9.0,46,0.00,,,0.00,Wunderground v.1.15,2013-03-02 16:08:00,
2013-03-02 10:14:00,46.4,26.2,30.45,NNW,335,9.0,13.0,45,0.00,,,0.00,Wunderground v.1.15,2013-03-02 16:14:00,
2013-03-02 10:20:00,46.6,25.3,30.45,North,9,9.0,12.0,43,0.00,,,0.00,Wunderground v.1.15,2013-03-02 16:20:00,
2013-03-02 10:26:00,46.8,24.9,30.45,NNW,335,10.0,12.0,42,0.00,,,0.00,Wunderground v.1.15,2013-03-02 16:26:00,
2013-03-02 10:32:00,46.7,24.2,30.45,NNW,344,12.0,18.0,41,0.00,,,0.00,Wunderground v.1.15,2013-03-02 16:32:00,
2013-03-02 10:38:00,47.2,24.1,30.45,NNE,16,11.0,18.0,40,0.00,,,0.00,Wunderground v.1.15,2013-03-02 16:38:00,
2013-03-02 10:44:00,47.5,24.9,30.45,North,351,11.0,14.0,41,0.00,,,0.00,Wunderground v.1.15,2013-03-02 16:44:00,
2013-03-02 10:50:00,47.8,25.2,30.45,WNW,297,10.0,10.0,41,0.00,,,0.00,Wunderground v.1.15,2013-03-02 16:50:00,
2013-03-02 10:56:00,48.1,25.5,30.45,NNW,345,10.0,11.0,41,0.00,,,0.00,Wunderground v.1.15,2013-03-02 16:56:00,
2013-03-02 11:02:00,48.4,25.8,30.45,NNE,12,10.0,10.0,41,0.00,,,0.00,Wunderground v.1.15,2013-03-02 17:02:00,
2013-03-02 11:08:00,49.0,25.1,30.44,NNW,338,8.0,13.0,39,0.00,,,0.00,Wunderground v.1.15,2013-03-02 17:08:00,
2013-03-02 11:14:00,48.9,25.6,30.44,NNW,341,9.0,12.0,40,0.00,,,0.00,Wunderground v.1.15,2013-03-02 17:14:00,
2013-03-02 11:20:00,49.6,26.2,30.44,NNW,345,9.0,10.0,40,0.00,,,0.00,Wunderground v.1.15,2013-03-02 17:20:00,
2013-03-02 11:26:00,50.4,26.3,30.44,NW,326,7.0,13.0,39,0.00,,,0.00,Wunderground v.1.15,2013-03-02 17:26:00,
2013-03-02 11:32:00,50.8,26.7,30.44,NNW,330,7.0,9.0,39,0.00,,,0.00,Wunderground v.1.15,2013-03-02 17:32:00,
2013-03-02 11:38:00,50.6,26.5,30.44,NNW,338,8.0,14.0,39,0.00,,,0.00,Wunderground v.1.15,2013-03-02 17:38:00,
2013-03-02 11:44:00,50.7,26.0,30.44,WNW,290,8.0,10.0,38,0.00,,,0.00,Wunderground v.1.15,2013-03-02 17:44:00,
2013-03-02 11:50:00,51.3,26.5,30.44,North,4,7.0,7.0,38,0.00,,,0.00,Wunderground v.1.15,2013-03-02 17:50:00,
2013-03-02 11:56:00,52.3,26.1,30.43,NW,315,6.0,9.0,36,0.00,,,0.00,Wunderground v.1.15,2013-03-02 17:56:00,
2013-03-02 12:02:00,52.6,25.7,30.43,NNW,333,7.0,13.0,35,0.00,,,0.00,Wunderground v.1.15,2013-03-02 18:02:00,
2013-03-02 12:08:00,52.8,25.9,30.43,North,351,9.0,17.0,35,0.00,,,0.00,Wunderground v.1.15,2013-03-02 18:08:00,
2013-03-02 12:14:00,53.2,26.2,30.42,North,8,8.0,15.0,35,0.00,,,0.00,Wunderground v.1.15,2013-03-02 18:14:00,
2013-03-02 12:20:00,52.9,26.0,30.42,NW,315,9.0,9.0,35,0.00,,,0.00,Wunderground v.1.15,2013-03-02 18:20:00,
2013-03-02 12:26:00,53.2,25.5,30.42,NW,312,9.0,12.0,34,0.00,,,0.00,Wunderground v.1.15,2013-03-02 18:26:00,
2013-03-02 12:32:00,53.3,25.6,30.41,WNW,303,8.0,12.0,34,0.00,,,0.00,Wunderground v.1.15,2013-03-02 18:32:00,
2013-03-02 12:38:00,53.8,26.8,30.40,NNW,335,8.0,12.0,35,0.00,,,0.00,Wunderground v.1.15,2013-03-02 18:38:00,
2013-03-02 12:44:00,54.1,27.0,30.40,NNW,328,7.0,9.0,35,0.00,,,0.00,Wunderground v.1.15,2013-03-02 18:44:00,
2013-03-02 12:50:00,54.6,27.5,30.40,NNE,22,7.0,9.0,35,0.00,,,0.00,Wunderground v.1.15,2013-03-02 18:50:00,
2013-03-02 12:56:00,54.4,27.3,30.39,NW,323,8.0,11.0,35,0.00,,,0.00,Wunderground v.1.15,2013-03-02 18:56:00,
2013-03-02 13:02:00,54.6,27.5,30.39,NNW,343,8.0,14.0,35,0.00,,,0.00,Wunderground v.1.15,2013-03-02 19:02:00,
2013-03-02 13:08:00,55.1,27.9,30.38,North,360,8.0,15.0,35,0.00,,,0.00,Wunderground v.1.15,2013-03-02 19:08:00,
2013-03-02 13:14:00,55.8,27.8,30.38,North,1,10.0,10.0,34,0.00,,,0.00,Wunderground v.1.15,2013-03-02 19:14:00,
2013-03-02 13:20:00,55.9,27.2,30.38,NNE,20,9.0,19.0,33,0.00,,,0.00,Wunderground v.1.15,2013-03-02 19:20:00,
2013-03-02 13:26:00,55.6,27.6,30.37,North,8,10.0,19.0,34,0.00,,,0.00,Wunderground v.1.15,2013-03-02 19:26:00,
2013-03-02 13:32:00,56.4,27.6,30.37,NNW,328,9.0,10.0,33,0.00,,,0.00,Wunderground v.1.15,2013-03-02 19:32:00,
2013-03-02 13:38:00,56.7,27.9,30.37,North,356,9.0,18.0,33,0.00,,,0.00,Wunderground v.1.15,2013-03-02 19:38:00,
2013-03-02 13:44:00,56.4,26.9,30.36,North,349,9.0,9.0,32,0.00,,,0.00,Wunderground v.1.15,2013-03-02 19:44:00,
2013-03-02 13:50:00,56.6,27.8,30.36,WNW,300,8.0,10.0,33,0.00,,,0.00,Wunderground v.1.15,2013-03-02 19:50:00,
2013-03-02 13:56:00,57.0,27.4,30.36,North,8,8.0,10.0,32,0.00,,,0.00,Wunderground v.1.15,2013-03-02 19:56:00,
2013-03-02 14:02:00,57.3,28.4,30.35,NNW,343,7.0,9.0,33,0.00,,,0.00,Wunderground v.1.15,2013-03-02 20:02:00,
2013-03-02 14:08:00,57.9,28.2,30.35,North,8,7.0,14.0,32,0.00,,,0.00,Wunderground v.1.15,2013-03-02 20:08:00,
2013-03-02 14:14:00,57.6,27.9,30.36,NNE,15,8.0,11.0,32,0.00,,,0.00,Wunderground v.1.15,2013-03-02 20:14:00,
2013-03-02 14:20:00,58.0,28.3,30.35,NNW,347,8.0,9.0,32,0.00,,,0.00,Wunderground v.1.15,2013-03-02 20:20:00,
2013-03-02 14:26:00,57.9,27.4,30.35,NW,312,8.0,10.0,31,0.00,,,0.00,Wunderground v.1.15,2013-03-02 20:26:00,
2013-03-02 14:32:00,58.1,28.4,30.35,NNW,330,8.0,9.0,32,0.00,,,0.00,Wunderground v.1.15,2013-03-02 20:32:00,
2013-03-02 14:38:00,58.2,27.7,30.34,NNW,342,8.0,11.0,31,0.00,,,0.00,Wunderground v.1.15,2013-03-02 20:38:00,
2013-03-02 14:44:00,58.1,27.6,30.34,NNE,16,7.0,14.0,31,0.00,,,0.00,Wunderground v.1.15,2013-03-02 20:44:00,
2013-03-02 14:50:00,58.5,27.9,30.34,NNE,13,8.0,10.0,31,0.00,,,0.00,Wunderground v.1.15,2013-03-02 20:50:00,
2013-03-02 14:56:00,58.6,28.0,30.34,NW,321,8.0,11.0,31,0.00,,,0.00,Wunderground v.1.15,2013-03-02 20:56:00,
2013-03-02 15:02:00,58.6,28.8,30.34,NNW,338,9.0,9.0,32,0.00,,,0.00,Wunderground v.1.15,2013-03-02 21:02:00,
2013-03-02 15:08:00,58.6,28.0,30.33,NW,321,9.0,10.0,31,0.00,,,0.00,Wunderground v.1.15,2013-03-02 21:08:00,
2013-03-02 15:14:00,58.4,27.9,30.33,NNE,13,9.0,10.0,31,0.00,,,0.00,Wunderground v.1.15,2013-03-02 21:14:00,
2013-03-02 15:20:00,58.8,28.2,30.33,NNW,330,7.0,11.0,31,0.00,,,0.00,Wunderground v.1.15,2013-03-02 21:20:00,
2013-03-02 15:26:00,58.8,28.2,30.33,NW,323,7.0,11.0,31,0.00,,,0.00,Wunderground v.1.15,2013-03-02 21:26:00,
2013-03-02 15:32:00,59.2,28.5,30.33,NW,325,8.0,9.0,31,0.00,,,0.00,Wunderground v.1.15,2013-03-02 21:32:00,
2013-03-02 15:38:00,59.1,28.5,30.32,NNW,334,8.0,11.0,31,0.00,,,0.00,Wunderground v.1.15,2013-03-02 21:38:00,
2013-03-02 15:44:00,59.1,28.5,30.32,West,278,9.0,10.0,31,0.00,,,0.00,Wunderground v.1.15,2013-03-02 21:44:00,
2013-03-02 15:50:00,59.1,28.5,30.32,NW,312,8.0,8.0,31,0.00,,,0.00,Wunderground v.1.15,2013-03-02 21:50:00,
2013-03-02 15:56:00,59.5,29.6,30.32,NW,309,7.0,9.0,32,0.00,,,0.00,Wunderground v.1.15,2013-03-02 21:56:00,
2013-03-02 16:02:00,59.6,28.9,30.32,North,11,7.0,16.0,31,0.00,,,0.00,Wunderground v.1.15,2013-03-02 22:02:00,
2013-03-02 16:08:00,59.2,28.5,30.31,NNW,336,8.0,16.0,31,0.00,,,0.00,Wunderground v.1.15,2013-03-02 22:08:00,
2013-03-02 16:14:00,59.6,28.9,30.31,NW,310,8.0,9.0,31,0.00,,,0.00,Wunderground v.1.15,2013-03-02 22:14:00,
2013-03-02 16:20:00,59.6,28.9,30.31,NW,313,7.0,9.0,31,0.00,,,0.00,Wunderground v.1.15,2013-03-02 22:20:00,
2013-03-02 16:26:00,60.0,29.2,30.31,North,8,6.0,9.0,31,0.00,,,0.00,Wunderground v.1.15,2013-03-02 22:26:00,
2013-03-02 16:32:00,59.8,29.1,30.31,North,353,6.0,12.0,31,0.00,,,0.00,Wunderground v.1.15,2013-03-02 22:32:00,
2013-03-02 16:38:00,59.7,29.0,30.31,NW,326,7.0,12.0,31,0.00,,,0.00,Wunderground v.1.15,2013-03-02 22:38:00,
2013-03-02 16:44:00,59.5,28.8,30.31,NNW,330,8.0,13.0,31,0.00,,,0.00,Wunderground v.1.15,2013-03-02 22:44:00,
2013-03-02 16:50:00,59.8,29.1,30.31,NW,313,8.0,8.0,31,0.00,,,0.00,Wunderground v.1.15,2013-03-02 22:50:00,
2013-03-02 16:56:00,59.8,29.1,30.31,NNW,345,6.0,16.0,31,0.00,,,0.00,Wunderground v.1.15,2013-03-02 22:56:00,
2013-03-02 17:02:00,59.7,29.0,30.31,North,356,8.0,9.0,31,0.00,,,0.00,Wunderground v.1.15,2013-03-02 23:02:00,
2013-03-02 17:08:00,59.3,29.4,30.31,NNW,343,8.0,9.0,32,0.00,,,0.00,Wunderground v.1.15,2013-03-02 23:08:00,
2013-03-02 17:14:00,59.3,29.4,30.31,NW,311,6.0,9.0,32,0.00,,,0.00,Wunderground v.1.15,2013-03-02 23:14:00,
2013-03-02 17:20:00,59.5,29.6,30.31,NW,311,5.0,9.0,32,0.00,,,0.00,Wunderground v.1.15,2013-03-02 23:20:00,
2013-03-02 17:26:00,59.6,29.7,30.31,NW,324,4.0,9.0,32,0.00,,,0.00,Wunderground v.1.15,2013-03-02 23:26:00,
2013-03-02 17:32:00,59.1,29.2,30.31,NNW,343,6.0,9.0,32,0.00,,,0.00,Wunderground v.1.15,2013-03-02 23:32:00,
2013-03-02 17:38:00,59.1,29.2,30.31,NNW,341,5.0,9.0,32,0.00,,,0.00,Wunderground v.1.15,2013-03-02 23:38:00,
2013-03-02 17:44:00,59.0,29.2,30.31,North,4,4.0,9.0,32,0.00,,,0.00,Wunderground v.1.15,2013-03-02 23:44:00,
2013-03-02 17:50:00,58.7,29.6,30.30,NNW,328,5.0,5.0,33,0.00,,,0.00,Wunderground v.1.15,2013-03-02 23:50:00,
2013-03-02 17:56:00,58.4,29.4,30.30,NNW,335,5.0,9.0,33,0.00,,,0.00,Wunderground v.1.15,2013-03-02 23:56:00,
2013-03-02 18:02:00,58.1,29.1,30.30,NNE,13,5.0,9.0,33,0.00,,,0.00,Wunderground v.1.15,2013-03-03 00:02:00,
2013-03-02 18:08:00,57.9,29.7,30.31,NNW,345,4.0,9.0,34,0.00,,,0.00,Wunderground v.1.15,2013-03-03 00:08:00,
2013-03-02 18:14:00,57.6,29.4,30.31,North,8,3.0,9.0,34,0.00,,,0.00,Wunderground v.1.15,2013-03-03 00:14:00,
2013-03-02 18:20:00,57.2,29.8,30.31,NW,308,3.0,3.0,35,0.00,,,0.00,Wunderground v.1.15,2013-03-03 00:20:00,
2013-03-02 18:26:00,56.6,29.2,30.31,North,6,2.0,9.0,35,0.00,,,0.00,Wunderground v.1.15,2013-03-03 00:26:00,
2013-03-02 18:32:00,55.8,29.2,30.31,North,359,1.0,9.0,36,0.00,,,0.00,Wunderground v.1.15,2013-03-03 00:32:00,
2013-03-02 18:38:00,54.9,29.1,30.31,North,5,0.0,9.0,37,0.00,,,0.00,Wunderground v.1.15,2013-03-03 00:38:00,
2013-03-02 18:44:00,54.1,29.7,30.31,North,8,0.0,9.0,39,0.00,,,0.00,Wunderground v.1.15,2013-03-03 00:44:00,
2013-03-02 18:50:00,53.8,29.4,30.31,North,7,1.0,9.0,39,0.00,,,0.00,Wunderground v.1.15,2013-03-03 00:50:00,
2013-03-02 18:56:00,53.5,29.1,30.31,North,11,1.0,9.0,39,0.00,,,0.00,Wunderground v.1.15,2013-03-03 00:56:00,
2013-03-02 19:02:00,53.2,29.5,30.31,North,358,1.0,9.0,40,0.00,,,0.00,Wunderground v.1.15,2013-03-03 01:02:00,
2013-03-02 19:08:00,53.2,29.5,30.31,North,358,1.0,9.0,40,0.00,,,0.00,Wunderground v.1.15,2013-03-03 01:08:00,
2013-03-02 19:14:00,53.0,29.3,30.31,North,358,1.0,9.0,40,0.00,,,0.00,Wunderground v.1.15,2013-03-03 01:14:00,
2013-03-02 19:20:00,52.9,29.2,30.31,North,358,0.0,9.0,40,0.00,,,0.00,Wunderground v.1.15,2013-03-03 01:20:00,
2013-03-02 19:26:00,52.8,29.1,30.31,North,6,0.0,9.0,40,0.00,,,0.00,Wunderground v.1.15,2013-03-03 01:26:00,
2013-03-02 19:32:00,52.8,29.1,30.31,North,5,1.0,9.0,40,0.00,,,0.00,Wunderground v.1.15,2013-03-03 01:32:00,
2013-03-02 19:38:00,52.6,28.9,30.31,North,5,1.0,9.0,40,0.00,,,0.00,Wunderground v.1.15,2013-03-03 01:38:00,
2013-03-02 19:44:00,52.6,28.9,30.31,North,5,1.0,9.0,40,0.00,,,0.00,Wunderground v.1.15,2013-03-03 01:44:00,
2013-03-02 19:50:00,52.6,28.9,30.32,North,360,2.0,2.0,40,0.00,,,0.00,Wunderground v.1.15,2013-03-03 01:50:00,
2013-03-02 19:56:00,52.3,29.3,30.31,North,4,2.0,9.0,41,0.00,,,0.00,Wunderground v.1.15,2013-03-03 01:56:00,
2013-03-02 20:02:00,52.3,29.3,30.32,North,1,1.0,9.0,41,0.00,,,0.00,Wunderground v.1.15,2013-03-03 02:02:00,
2013-03-02 20:08:00,52.2,29.2,30.32,North,1,1.0,9.0,41,0.00,,,0.00,Wunderground v.1.15,2013-03-03 02:08:00,
2013-03-02 20:14:00,52.5,29.5,30.32,North,6,1.0,9.0,41,0.00,,,0.00,Wunderground v.1.15,2013-03-03 02:14:00,
2013-03-02 20:20:00,52.6,28.9,30.32,North,6,1.0,9.0,40,0.00,,,0.00,Wunderground v.1.15,2013-03-03 02:20:00,
2013-03-02 20:26:00,52.6,28.9,30.32,North,6,1.0,9.0,40,0.00,,,0.00,Wunderground v.1.15,2013-03-03 02:26:00,
2013-03-02 20:32:00,52.7,29.0,30.32,North,7,1.0,9.0,40,0.00,,,0.00,Wunderground v.1.15,2013-03-03 02:32:00,
2013-03-02 20:38:00,52.3,28.7,30.32,North,8,1.0,9.0,40,0.00,,,0.00,Wunderground v.1.15,2013-03-03 02:38:00,
2013-03-02 20:44:00,52.1,29.1,30.32,North,7,0.0,9.0,41,0.00,,,0.00,Wunderground v.1.15,2013-03-03 02:44:00,
2013-03-02 20:50:00,51.5,29.1,30.32,North,7,0.0,9.0,42,0.00,,,0.00,Wunderground v.1.15,2013-03-03 02:50:00,
2013-03-02 20:56:00,51.8,29.4,30.32,NE,40,0.0,9.0,42,0.00,,,0.00,Wunderground v.1.15,2013-03-03 02:56:00,
2013-03-02 21:02:00,52.2,29.2,30.32,ENE,72,0.0,9.0,41,0.00,,,0.00,Wunderground v.1.15,2013-03-03 03:02:00,
2013-03-02 21:08:00,52.5,28.8,30.32,East,82,1.0,9.0,40,0.00,,,0.00,Wunderground v.1.15,2013-03-03 03:08:00,
2013-03-02 21:14:00,52.4,28.8,30.32,ESE,120,0.0,9.0,40,0.00,,,0.00,Wunderground v.1.15,2013-03-03 03:14:00,
2013-03-02 21:20:00,51.9,28.9,30.32,SE,141,0.0,9.0,41,0.00,,,0.00,Wunderground v.1.15,2013-03-03 03:20:00,
2013-03-02 21:26:00,51.3,29.0,30.32,SE,145,0.0,9.0,42,0.00,,,0.00,Wunderground v.1.15,2013-03-03 03:26:00,
2013-03-02 21:32:00,51.2,28.9,30.32,SE,145,0.0,9.0,42,0.00,,,0.00,Wunderground v.1.15,2013-03-03 03:32:00,
2013-03-02 21:38:00,50.6,28.9,30.32,SSE,151,0.0,9.0,43,0.00,,,0.00,Wunderground v.1.15,2013-03-03 03:38:00,
2013-03-02 21:44:00,50.3,28.6,30.32,SSE,156,1.0,9.0,43,0.00,,,0.00,Wunderground v.1.15,2013-03-03 03:44:00,
2013-03-02 21:50:00,49.9,28.8,30.32,South,170,1.0,9.0,44,0.00,,,0.00,Wunderground v.1.15,2013-03-03 03:50:00,
2013-03-02 21:56:00,49.5,29.0,30.32,SSE,157,2.0,9.0,45,0.00,,,0.00,Wunderground v.1.15,2013-03-03 03:56:00,
2013-03-02 22:02:00,49.4,28.9,30.32,SE,127,1.0,9.0,45,0.00,,,0.00,Wunderground v.1.15,2013-03-03 04:02:00,
2013-03-02 22:08:00,49.8,28.7,30.32,SSE,152,1.0,9.0,44,0.00,,,0.00,Wunderground v.1.15,2013-03-03 04:08:00,
2013-03-02 22:14:00,49.9,28.8,30.32,SSE,153,1.0,9.0,44,0.00,,,0.00,Wunderground v.1.15,2013-03-03 04:14:00,
2013-03-02 22:20:00,49.8,28.7,30.32,SSE,165,1.0,9.0,44,0.00,,,0.00,Wunderground v.1.15,2013-03-03 04:20:00,
2013-03-02 22:26:00,49.5,29.0,30.32,SSE,162,1.0,9.0,45,0.00,,,0.00,Wunderground v.1.15,2013-03-03 04:26:00,
2013-03-02 22:32:00,49.5,29.0,30.32,SSE,151,1.0,9.0,45,0.00,,,0.00,Wunderground v.1.15,2013-03-03 04:32:00,
2013-03-02 22:38:00,49.7,29.2,30.31,SSE,148,1.0,9.0,45,0.00,,,0.00,Wunderground v.1.15,2013-03-03 04:38:00,
2013-03-02 22:44:00,49.8,28.7,30.31,SSE,148,1.0,9.0,44,0.00,,,0.00,Wunderground v.1.15,2013-03-03 04:44:00,
2013-03-02 22:50:00,50.1,29.0,30.31,SE,145,1.0,9.0,44,0.00,,,0.00,Wunderground v.1.15,2013-03-03 04:50:00,
2013-03-02 22:56:00,50.5,28.8,30.31,SE,136,1.0,9.0,43,0.00,,,0.00,Wunderground v.1.15,2013-03-03 04:56:00,
2013-03-02 23:00:00,50.7,29.0,30.31,SSE,148,1.0,9.0,43,0.00,,,0.00,Wunderground v.1.15,2013-03-03 05:00:00,
2013-03-02 23:04:00,50.8,29.1,30.31,SSE,155,1.0,9.0,43,0.00,,,0.00,Wunderground v.1.15,2013-03-03 05:04:00,
2013-03-02 23:06:00,50.7,29.0,30.31,SE,145,1.0,9.0,43,0.00,,,0.00,Wunderground v.1.15,2013-03-03 05:06:00,
2013-03-02 23:12:00,50.7,29.0,30.31,SE,134,2.0,9.0,43,0.00,,,0.00,Wunderground v.1.15,2013-03-03 05:12:00,
2013-03-02 23:16:00,50.6,28.9,30.31,SSE,156,2.0,9.0,43,0.00,,,0.00,Wunderground v.1.15,2013-03-03 05:16:00,
2013-03-02 23:22:00,50.1,29.0,30.31,SSE,162,2.0,9.0,44,0.00,,,0.00,Wunderground v.1.15,2013-03-03 05:22:00,
2013-03-02 23:28:00,49.6,28.6,30.31,SSE,162,2.0,9.0,44,0.00,,,0.00,Wunderground v.1.15,2013-03-03 05:28:00,
2013-03-02 23:34:00,49.0,28.6,30.31,SSE,158,3.0,9.0,45,0.00,,,0.00,Wunderground v.1.15,2013-03-03 05:34:00,
2013-03-02 23:40:00,48.7,28.8,30.31,SE,144,3.0,9.0,46,0.00,,,0.00,Wunderground v.1.15,2013-03-03 05:40:00,
2013-03-02 23:46:00,48.2,28.9,30.30,SSE,168,3.0,9.0,47,0.00,,,0.00,Wunderground v.1.15,2013-03-03 05:46:00,
2013-03-02 23:52:00,47.9,28.6,30.30,SSE,155,3.0,9.0,47,0.00,,,0.00,Wunderground v.1.15,2013-03-03 05:52:00,
2013-03-02 23:58:00,47.7,28.9,30.30,SSE,168,3.0,9.0,48,0.00,,,0.00,Wunderground v.1.15,2013-03-03 05:58:00,